Regional Weather Roundup
Issued by NWS

Home | Current Version | Previous Version | Graphics & Text | Print | Product List | Glossary On
Versions: 1 2 3 4 5 6 7 8 9 10 11 12 13 14 15 16 17 18 19 20 21 22 23 24 25 26 27 28 29 30 31 32 33 34 35 36 37 38 39 40 41 42 43 44 45 46 47 48 49 50
000
ASUS43 KBIS 100902
RWRND

NORTH DAKOTA REGIONAL WEATHER ROUNDUP
NATIONAL WEATHER SERVICE BISMARCK ND
300 AM CST SAT DEC 10 2016

NOTE: "FAIR" INDICATES FEW OR NO CLOUDS BELOW 12,000 FEET WITH NO
SIGNIFICANT WEATHER AND/OR OBSTRUCTIONS TO VISIBILITY.


NDZ001>003-009>011-017-101000-
NORTHWEST NORTH DAKOTA

CITY           SKY/WX    TMP DP  RH WIND       PRES   REMARKS
WILLISTON      CLOUDY   -15 -20  78 N5        30.37F WCI -27
MINOT          CLOUDY   -16 -20  82 CALM      30.42F
MINOT AFB      CLOUDY   -23 -29  72 W2        30.42F
$$

NDZ018>021-031>035-040>046-101000-
SOUTHWEST NORTH DAKOTA

CITY           SKY/WX    TMP DP  RH WIND       PRES   REMARKS
BISMARCK       CLOUDY   -14 -19  79 E3        30.47F
DICKINSON      CLOUDY   -10 -16  74 E6        30.26F WCI -23
GARRISON         N/A    -18 -23  77 N5        30.41S WCI -31
HETTINGER ARPT CLOUDY    -6 -10  83 SE8       30.27F WCI -21
$$

NDZ004>008-012>016-024-026-027-054-101000-
NORTHEAST NORTH DAKOTA

CITY           SKY/WX    TMP DP  RH WIND       PRES   REMARKS
GRAND FORKS    CLOUDY    -3  -9  75 NW6       30.54F WCI -15
GRND FRKS AFB  CLOUDY    -4  -9  77 NW6       30.54S WCI -16
DEVILS LAKE    CLOUDY   -16 -20  82 CALM      30.47F
$$

NDZ022-023-025-028>030-036>039-047>053-101000-
SOUTHEAST NORTH DAKOTA

CITY           SKY/WX    TMP DP  RH WIND       PRES   REMARKS
FARGO          CLOUDY    -7 -13  75 CALM      30.54F
JAMESTOWN      CLOUDY   -15 -19  82 NW6       30.48R WCI -29
$$




USA.gov is the U.S. government's official web portal to all federal, state and local government web resources and services.